Погода в Акхисаре

Турция     38°55′31″N   27°50′04″E
В апреле 2022 года жителям России запретили посещать сайт meteo.paraplan.net по решению Генеральной прокуратуры. Аудитория сайта уменьшилась в 10 раз. Владельцы сайта не видят смысла в поддержке погодного сервера в таких условиях. Сайт будет закрыт в октябре.
темп.,
°C
ветер,
м/с
пор.,
м/с
влажн.,
%
обл.,
%
осадки,
мм/ч
давл.,
гПа
погр.,
м
4 октября, вт
вт400:00+15с46512 0.0 1012105
03:00+14с47644 0.0 1013151
06:00+13с48815 0.0 1014189
09:00+16с610570 0.0 1015877
12:00+21с78400 0.0 10151385
15:00+23с66310 0.0 10151921
18:00+20с79390 0.0 10161433
21:00+15с59570 0.0 1019319
5 октября, ср
ср500:00+12с410730 0.0 1020348
03:00+11с46810 0.0 1021125
06:00+10с46850 0.0 1022133
09:00+14ссв511660 0.0 1023722
12:00+20ссв78370 0.0 10221380
15:00+23ссв88290 0.0 10202066
18:00+19с1012430 0.0 10201092
21:00+15с712580 0.0 1022536
6 октября, чт
чт600:00+13с46710 0.0 1022126
03:00+11с46820 0.0 1022127
06:00+10с46880 0.0 1022135
09:00+14с47703 0.0 1022385
12:00+20ссв664283 0.0 10201016
15:00+25ссв773039 0.0 10181736
18:00+20с91349100 0.0 1018858
21:00+16с71262100 0.0 1020659
7 октября, пт
пт700:00+14с5969100 0.0 1020385
03:00+12с487948 0.0 1020213
06:00+11с48845 0.0 1020176
09:00+15ссв611661 0.0 1020707
12:00+21ссв910400 0.0 10191404
15:00+23ссв1112310 0.0 10162098
18:00+19ссв1014470 0.0 10171222
21:00+16с713610 0.0 1018722
8 октября, сб
сб800:00+14с612670 0.0 1018629
03:00+12с35830 0.0 101897
06:00+11с35910 0.0 101893
09:00+15ссв49722 0.0 1018660
12:00+20ссв774811 0.0 10171329
15:00+22ссв884227 0.0 10151735
18:00+19с710520 0.0 1016983
21:00+16с48672 0.0 1017183